sat.trackr.live / text

‹ back to catalog

GEESAT-3 10

NORAD 61020 · 2024-159K

PAYLOAD ACTIVE UNKNOWN

§ Identity

Operator
Country
PRC
Launch date
2024-09-05
Launch site
TAISC
Launch vehicle
Mass (kg)
RCS (m²)

External: N2YO · Heavens-Above · Gunter

§ Orbital elements

Epoch: 2026-05-25T03:15:21.506976Z

Period
97.03 min
Inclination
49.9983°
Eccentricity
0.0003817
Mean motion
14.84136252 rev/d
Perigee alt
613.6 km
Apogee alt
619.0 km
Semi-major
6,994.4 km
B*
1.6857e-4
RAAN
190.1385°
Arg perigee
14.6556°
Mean anomaly
345.4492°
Rev number
9,308

§ Raw data

GEESAT-3 101 61020U 24159K   26145.13566559  .00001196  00000+0  16857-3 0  99942 61020  49.9983 190.1385 0003817  14.6556 345.4492 14.84136252 93083

JSON: /api/v1/satellites/61020 · /tle

For live sub-satellite position, see the globe view (requires WebGL).

§ Visibility from observer

Set your observer location to see the next 7 days of passes ≥ 10°. The values pass through the URL so the page stays shareable.

No JS? Fill the form by hand. The geolocation button needs JavaScript.